TimePST,TemperatureF,Dew PointF,Humidity,Sea Level PressureIn,VisibilityMPH,Wind Direction,Wind SpeedMPH,Gust SpeedMPH,PrecipitationIn,Events,Conditions,WindDirDegrees,DateUTC
12:04 AM,42.8,41.0,93,29.81,7.0,Calm,Calm,-,0.01,Rain,Light Rain,0,2012-12-14 08:04:00
12:41 AM,42.8,41.0,93,29.80,8.0,SE,4.6,-,0.04,Rain,Light Rain,140,2012-12-14 08:41:00
12:48 AM,42.8,41.0,93,29.80,8.0,SE,4.6,-,0.04,Rain,Light Rain,140,2012-12-14 08:48:00
12:55 AM,43.0,41.0,93,29.80,9.0,SE,4.6,-,0.04,Rain,Light Rain,140,2012-12-14 08:55:00
1:55 AM,43.0,41.0,93,29.79,6.0,SE,3.5,-,0.04,Rain,Light Rain,140,2012-12-14 09:55:00
2:44 AM,42.8,41.0,93,29.79,2.5,South,6.9,-,0.13,Rain,Rain,180,2012-12-14 10:44:00
2:55 AM,42.8,39.2,87,29.79,7.0,SSE,6.9,-,N/A,Rain,Light Rain,160,2012-12-14 10:55:00
3:09 AM,42.8,41.0,93,29.78,8.0,Variable,5.8,-,0.00,Rain,Light Rain,0,2012-12-14 11:09:00
3:13 AM,42.8,41.0,93,29.79,9.0,East,6.9,-,0.00,Rain,Light Rain,80,2012-12-14 11:13:00
3:55 AM,42.1,41.0,96,29.79,4.0,East,4.6,-,0.06,Rain,Light Rain,100,2012-12-14 11:55:00
4:09 AM,42.8,41.0,93,29.79,10.0,Calm,Calm,-,0.00,,Overcast,0,2012-12-14 12:09:00
4:55 AM,42.1,39.9,92,29.78,10.0,Calm,Calm,-,0.00,,Mostly Cloudy,0,2012-12-14 12:55:00
5:44 AM,42.8,39.2,87,29.79,10.0,Calm,Calm,-,N/A,,Overcast,0,2012-12-14 13:44:00
5:52 AM,41.0,39.2,93,29.79,10.0,SSE,3.5,-,N/A,,Overcast,150,2012-12-14 13:52:00
5:55 AM,41.0,39.9,96,29.79,10.0,SSE,3.5,-,N/A,,Mostly Cloudy,150,2012-12-14 13:55:00
6:15 AM,41.0,39.2,93,29.80,10.0,Calm,Calm,-,N/A,,Overcast,0,2012-12-14 14:15:00
6:33 AM,42.8,39.2,87,29.81,10.0,Calm,Calm,-,N/A,,Overcast,0,2012-12-14 14:33:00
6:50 AM,42.8,39.2,87,29.82,10.0,Calm,Calm,-,N/A,,Overcast,0,2012-12-14 14:50:00
6:55 AM,42.1,39.9,92,29.82,10.0,Calm,Calm,-,N/A,,Overcast,0,2012-12-14 14:55:00
7:14 AM,41.0,39.2,93,29.83,10.0,Calm,Calm,-,0.00,Rain,Light Rain,0,2012-12-14 15:14:00
7:43 AM,39.2,37.4,93,29.83,1.8,Calm,Calm,-,0.00,,Scattered Clouds,0,2012-12-14 15:43:00
7:47 AM,39.2,37.4,93,29.84,0.8,ESE,3.5,-,0.00,,Mostly Cloudy,120,2012-12-14 15:47:00
7:51 AM,39.2,37.4,93,29.84,0.2,SE,3.5,-,0.00,Fog,Fog,130,2012-12-14 15:51:00
7:55 AM,39.0,37.9,96,29.84,0.2,ESE,3.5,-,0.00,Fog,Fog,120,2012-12-14 15:55:00
8:34 AM,37.4,37.4,100,29.85,0.2,ESE,3.5,-,N/A,Fog,Fog,110,2012-12-14 16:34:00
8:43 AM,37.4,37.4,100,29.85,0.2,ESE,3.5,-,N/A,Fog,Fog,110,2012-12-14 16:43:00
8:55 AM,37.9,37.0,97,29.85,0.8,SE,4.6,-,N/A,,Mostly Cloudy,140,2012-12-14 16:55:00
9:03 AM,39.2,37.4,93,29.85,1.5,SSE,3.5,-,N/A,,Mostly Cloudy,150,2012-12-14 17:03:00
9:06 AM,39.2,37.4,93,29.86,3.0,SSE,4.6,-,N/A,,Scattered Clouds,150,2012-12-14 17:06:00
9:55 AM,42.1,41.0,96,29.87,10.0,ESE,3.5,-,N/A,,Mostly Cloudy,120,2012-12-14 17:55:00
10:55 AM,44.1,41.0,89,29.88,10.0,SSE,3.5,-,N/A,,Clear,150,2012-12-14 18:55:00
11:55 AM,48.0,41.0,77,29.90,10.0,NW,3.5,-,N/A,,Clear,310,2012-12-14 19:55:00
12:55 PM,46.9,39.0,74,29.91,10.0,NNW,5.8,-,N/A,,Partly Cloudy,330,2012-12-14 20:55:00
1:55 PM,48.2,39.2,71,29.91,10.0,NNW,6.9,-,N/A,,Clear,340,2012-12-14 21:55:00
2:55 PM,48.0,37.9,68,29.92,10.0,Calm,Calm,-,N/A,,Clear,0,2012-12-14 22:55:00
3:55 PM,46.0,37.0,71,29.93,10.0,Calm,Calm,-,N/A,,Mostly Cloudy,0,2012-12-14 23:55:00
4:55 PM,39.9,37.9,93,29.93,10.0,Calm,Calm,-,N/A,,Scattered Clouds,0,2012-12-15 00:55:00
5:55 PM,39.9,37.9,93,29.93,10.0,SE,3.5,-,N/A,,Mostly Cloudy,140,2012-12-15 01:55:00
6:55 PM,37.0,36.0,96,29.94,10.0,SE,4.6,-,N/A,,Scattered Clouds,130,2012-12-15 02:55:00
7:55 PM,37.0,36.0,96,29.94,10.0,SE,4.6,-,N/A,,Mostly Cloudy,140,2012-12-15 03:55:00
8:55 PM,36.0,34.0,93,29.94,10.0,Calm,Calm,-,N/A,,Clear,0,2012-12-15 04:55:00
9:55 PM,36.0,34.0,93,29.93,10.0,SE,3.5,-,N/A,,Clear,130,2012-12-15 05:55:00
10:55 PM,34.0,33.1,96,29.91,10.0,SE,3.5,-,N/A,,Clear,140,2012-12-15 06:55:00
11:55 PM,33.1,32.0,96,29.89,10.0,ESE,3.5,-,N/A,,Clear,120,2012-12-15 07:55:00